Location: Norderney
(53.7000°N, 7.1500°E)
Time: 17:26:14
(UTC+02:00)

ACS3 Solar Sail - Pass Details

Date: 20 August 2024
Orbit: 980 x 1030 km, 97.4° (Epoch: 08 September)

Event Time Altitude Azimuth Distance (km) Brightness Sun altitude
Exits shadow 22:20:25 - 177° (S) 3,418 4.2 -12.4°
Reaches altitude 10° 22:22:03 10° 180° (S) 2,803 3.8 -12.6°
Maximum altitude 22:28:20 62° 261° (W) 1,150 2.4 -13.3°
Drops below altitude 10° 22:34:45 10° 342° (NNW) 2,853 5.3 -14.0°
Sets 22:37:20 0° 346° (NNW) 3,813 6.0 -14.2°
